Location: Carlisle
(34.5501°N, 84.5969°W)
Time: 22:49:01
(UTC+00:00)

Hubble Space Telescope - Pass Details

Date: 02 December 2021
Orbit: 534 x 538 km, 28.5° (Epoch: 18 January)

Event Time Altitude Azimuth Distance (km) Brightness Sun altitude
Exits shadow 10:14:10 26° 158° (SSE) 1,070 2.5 -27.0°
Drops below altitude 10° 10:16:38 10° 126° (SE) 1,773 4.2 -26.5°
Sets 10:19:04 0° 116° (ESE) 2,663 5.5 -26.0°
